Tracking 29932 objects as of 3-Dec-2024
HD Live streaming from Space Station
objects crossing your sky now

STARLINK-30369

Track STARLINK-30369 now!
10-day predictions
STARLINK-30369 is classified as:


NORAD ID: 57781
Int'l Code: 2023-134L
Perigee: 565.3 km
Apogee: 567.1 km
Inclination: 43.0 °
Period: 95.8 minutes
Semi major axis: 6937 km
RCS: Unknown
Launch date: September 4, 2023
Source: United States (US)
Launch site: AIR FORCE EASTERN TEST RANGE (AFETR)
Your satellite tracking list
Your tracking list is empty




NASA's NSSDC Master Catalog

Two Line Element Set (TLE):
1 57781U 23134L   24338.02279335  .00001868  00000-0  15327-3 0  9996
2 57781  43.0012 186.1454 0001247 273.7156  86.3543 15.02539983 69957
Source of the keplerian elements: AFSPC